Flag for U.S.A. Weather past 2 weeks in Harrisburg, Pennsylvania, U.S.A.

Now
80 °F

Sunny.


Feels Like: 82 °F
Forecast: 68 / 82 °F
Wind: 9 mph from Southeast

Location: Capital City Airport

Current Time: Sep 4, 2015 at 9:12:37 PM

Latest Report: Sep 4, 2015 at 7:56 PM


Visibility: 10 mi

Pressure: 30.08 "Hg

Humidity: 62%

Dew point: 66 °F

Location of HarrisburgLocation

Historic Weather in Harrisburg — Graph

°F

Harrisburg temperature yesterday

Maximum temperature yesterday: 92 °F (at 4:56 PM)
Minimum temperature yesterday: 70 °F (at 6:56 AM)
Average temperature yesterday: 80 °F

Past Weeks' High & Low Weather Summary

 TemperatureHumidityPressure
High92 °F (Sep 3, 4:56 PM)96% (Aug 20, 11:56 PM)30.22 "Hg (Aug 20, 11:56 PM)
Low57 °F (Aug 22, 5:56 AM)32% (Aug 22, 3:56 PM)29.81 "Hg (Aug 24, 3:56 PM)
Average73 °F66%30.03 "Hg
* Reported Aug 20 7:56 PM — Sep 4 7:56 PM, Harrisburg, Weather by CustomWeather, © 2015

Note: Actual official high and low records may vary slightly from our data, if they occured in-between our weather recording intervals... More about our weather records

Advertising

Harrisburg weather history for previous 24 hours

 ConditionsComfort  
Time TempWeatherWind HumidityBarometerVisibility
7:56 PM
Fri, Sep 4
80 °FSunny.9 mph62%30.08 "Hg10 mi
6:56 PM82 °FPassing clouds.13 mph56%30.07 "Hg10 mi
5:56 PM88 °FSunny.12 mph48%30.04 "Hg8 mi
4:56 PM89 °FSunny.13 mph46%30.02 "Hg8 mi
3:56 PM90 °FPassing clouds.9 mph47%30.01 "Hg10 mi
2:56 PM89 °FSunny.5 mph46%30.02 "Hg9 mi
1:56 PM90 °FPassing clouds.7 mph45%30.03 "Hg9 mi
12:56 PM87 °FSunny.6 mph51%30.04 "Hg9 mi
11:56 AM85 °FSunny.5 mph57%30.05 "Hg9 mi
10:56 AM84 °FSunny.8 mph59%30.05 "Hg9 mi
9:56 AM81 °FSunny.8 mph60%30.04 "Hg10 mi
8:56 AM78 °FSunny.3 mph74%30.03 "Hg7 mi
7:56 AM73 °FSunny.6 mph81%30.01 "Hg5 mi
6:56 AM69 °FFog.5 mph90%29.99 "Hg5 mi
5:56 AM69 °FFog.3 mph90%29.97 "Hg6 mi
4:56 AM71 °FFog.No wind87%29.95 "Hg6 mi
3:56 AM71 °FClear.5 mph87%29.93 "Hg7 mi
2:56 AM72 °FClear.5 mph84%29.93 "Hg7 mi
1:56 AM73 °FClear.6 mph81%29.93 "Hg8 mi
12:56 AM74 °FClear.3 mph79%29.92 "Hg9 mi
11:56 PM
Thu, Sep 3
74 °FClear.5 mph79%29.91 "Hg9 mi
10:56 PM76 °FClear.3 mph74%29.90 "Hg10 mi
9:56 PM78 °FClear.No wind69%29.90 "Hg10 mi
Weather by CustomWeather, © 2015

See weather overviewHow to use our weather pages